Hourly Weather Roundup
Issued by NWS Central Illinois

Home | Current Version | Previous Version | Text Only | Print | Product List | Glossary On
Versions: 1 2 3 4 5 6 7 8 9 10 11 12 13 14 15 16 17 18 19 20 21 22 23 24 25 26 27 28 29 30 31 32 33 34 35 36 37 38 39 40 41 42 43 44 45 46 47 48 49 50
374
NZUS43 KILX 180610
HWRILX

AREA WEATHER ROUNDUP
NATIONAL WEATHER SERVICE, LINCOLN IL
1200 AM CST WED JAN 18 2017


CITY           SKY/WX    TMP DP  RH WIND       PRES   REMARKS
BLOOMINGTON    CLOUDY    35  33  92 W12       30.09R WCI  27
6HR MIN TEMP:  35; 6HR MAX TEMP:  36; 6HR PCP: TRACE;

CHAMPAIGN      CLOUDY    37  34  89 W16       30.10S WCI  28
6HR MIN TEMP:  36; 6HR MAX TEMP:  39; 6HR PCP: TRACE;

DANVILLE       CLOUDY    35  33  93 W12       30.06R WCI  27
6HR MIN TEMP:  35; 6HR MAX TEMP:  38;

DECATUR        CLOUDY    37  37 100 W12       30.12R WCI  29
6HR MIN TEMP:  37; 6HR MAX TEMP:  39;

EFFINGHAM      CLOUDY    39  38  95 W10       30.16S WCI  32
6HR MIN TEMP:  39; 6HR MAX TEMP:  43;

FLORA          CLOUDY    41  37  85 W8        30.16S
6HR MIN TEMP:  41; 6HR MAX TEMP:  46;

GALESBURG      CLOUDY    33  33 100 W10       30.11R FOG     WCI  25
6HR MIN TEMP:  33; 6HR MAX TEMP:  35;

JACKSONVILLE   CLOUDY    38  34  88 W14       30.15R WCI  29
6HR MIN TEMP:  37; 6HR MAX TEMP:  38;

LACON          CLOUDY    34  33  96 W8        30.08S FOG     WCI  27
6HR MIN TEMP:  34; 6HR MAX TEMP:  36;

LAWRENCEVILLE  CLOUDY    41  39  93 W9        30.14R
6HR MIN TEMP:  41; 6HR MAX TEMP:  45; 6HR PCP: TRACE;

LITCHFIELD     CLOUDY    37  35  92 W12       30.15S WCI  30
6HR MIN TEMP:  37; 6HR MAX TEMP:  39;

$$


CITY           SKY/WX    TMP DP  RH WIND       PRES   REMARKS
LINCOLN        CLOUDY    38  37  94 W6        30.12R WCI  33
6HR MIN TEMP:  37; 6HR MAX TEMP:  38;

MACOMB         CLOUDY    35  35  99 W8        30.14S WCI  29
6HR MIN TEMP:  35; 6HR MAX TEMP:  36;

MATTOON        CLOUDY    37  31  78 W14       30.11S WCI  28
6HR MIN TEMP:  37; 6HR MAX TEMP:  40;

MT CARMEL AP   CLOUDY    40  37  87 W12       30.14S WCI  34
6HR MIN TEMP:  40; 6HR MAX TEMP:  44;

OLNEY-NOBLE AP CLOUDY    37  37 100 W12G17    30.15S WCI  30
PARIS          CLOUDY    37  35  94 W12       30.12R WCI  29
6HR MIN TEMP:  37; 6HR MAX TEMP:  40;

PEORIA         CLOUDY    35  33  92 W8        30.11R WCI  29
6HR MIN TEMP:  35; 6HR MAX TEMP:  36;

PONTIAC        CLOUDY    35  35 100 W14       30.08R FOG     WCI  26
6HR MIN TEMP:  35; 6HR MAX TEMP:  36;

RANTOUL        CLOUDY    37  35  92 W14       30.08S WCI  29
6HR MIN TEMP:  37; 6HR MAX TEMP:  39;

SPRINGFIELD    CLOUDY    39  35  86 W13       30.14R WCI  31
6HR MIN TEMP:  39; 6HR MAX TEMP:  40;

TAYLORVILLE    CLOUDY    37  35  92 W10G18    30.14S WCI  30
6HR MIN TEMP:  37; 6HR MAX TEMP:  39;

$$

...REGIONAL REPORTS...


CITY           SKY/WX    TMP DP  RH WIND       PRES   REMARKS
CHICAGO O`HARE CLOUDY    35  33  92 W10       30.00R WCI  27
KANKAKEE       CLOUDY    34  34  98 W9        30.06R FOG     WCI  27
MOLINE         CLOUDY    35  32  88 W12       30.08S FOG     WCI  27
MOUNT STERLING CLOUDY    36  34  91 W7        30.14R WCI  31
MOUNT VERNON   CLOUDY    40  36  86 VRB3      30.17R
PITTSFIELD     CLOUDY    38  35  87 W8        30.16S WCI  32
QUINCY         CLOUDY    37  34  89 W8        30.15R WCI  31
ROCKFORD       CLOUDY    35  33  92 W9        30.05R FOG     WCI  28
$$


CITY           SKY/WX    TMP DP  RH WIND       PRES   REMARKS
BURLINGTON     CLOUDY    36  35  96 W7        30.12R WCI  30
CEDAR RAPIDS   CLOUDY    32  32 100 W7        30.08S FOG     WCI  26
DES MOINES     CLOUDY    32  29  88 SW13      30.12R WCI  22
KIRKSVILLE     CLOUDY    35  31  85 W8        30.16S WCI  29
OTTUMWA        CLOUDY    34  30  85 W8        30.12R WCI  27
ST LOUIS       CLOUDY    41  35  79 W9        30.17S
$$


CITY           SKY/WX    TMP DP  RH WIND       PRES   REMARKS
TERRE HAUTE    CLOUDY    38  34  85 W13G21    30.11S WCI  30
EVANSVILLE     CLOUDY    44  40  85 W5        30.16S
INDIANAPOLIS   DRIZZLE   37  34  89 W14       30.07S WCI  28
LAFAYETTE      CLOUDY    35  34  96 W8        30.06S WCI  29
MADISON        CLOUDY    33  33 100 W3        30.00S FOG
MILWAUKEE      CLOUDY    36  33  89 W9        29.98R WCI  29
$$






USA.gov is the U.S. government's official web portal to all federal, state and local government web resources and services.